Location: Peterborough
(44.3091°N, 78.3197°W)
Time: 01:12:16
(UTC-04:00)

S-56A Canister/Altair - Pass Details

Date: 30 March 2023
Orbit: 639 x 2492 km, 38.9° (Epoch: 02 June)

Event Time Altitude Azimuth Distance (km) Brightness Sun altitude
Rises 23:49:47 0° 281° (W) 5,618 12.4 -38.1°
Reaches altitude 10° 23:53:20 10° 276° (W) 4,793 11.9 -38.4°
Enters shadow 00:05:23 50° 221° (SW) 2,979 10.1 -39.4°
